Terug naar catalogus

PRAETORIAN SDA_620

ActiefMilitairPO
NORAD 65583·PAYLOAD·🇺🇸 United States

Gelanceerd Sep 10, 2025 vanaf Vandenberg Space Force Base

Loading…

Volgende Passages (komende 24 uur)

TLE

VersSource: Space-Track

Epoch: Sep 14, 2026, 12:22 UTC

1 65583U 25203U   26257.51548257  .00000172  00000-0  14664-3 0  9992
2 65583  81.3002 288.2124 0006590 312.7619  47.2981 13.83211984 51040

Volg PRAETORIAN SDA_620 in realtime met AllMySat

Download on the App Store